Regional Weather Roundup
Issued by NWS

Home | Current Version | Previous Version | Graphics & Text | Print | Product List | Glossary On
Versions: 1 2 3 4 5 6 7 8 9 10 11 12 13 14 15 16 17 18 19 20 21 22 23 24 25 26 27 28 29 30 31 32 33 34 35 36 37 38 39 40 41 42 43 44 45 46 47 48 49 50
000
ASUS43 KTOP 310459
RWRKS

WEATHER ROUNDUP FOR KANSAS
NATIONAL WEATHER SERVICE GOODLAND KS
1200 AM CDT FRI OCT 31 2014

NOTE:  "FAIR" INDICATES FEW OR NO CLOUDS BELOW 12,000 FEET WITH NO
SIGNIFICANT WEATHER AND/OR OBSTRUCTIONS TO VISIBILITY.

KSZ001>006-013>018-027>032-041>047-310600-
NORTHWEST KANSAS

CITY           SKY/WX    TMP DP  RH WIND       PRES   REMARKS
GOODLAND       CLEAR     37  28  70 E6        30.43R
HAYS           CLEAR     46  30  53 N14       30.38R
HILL CITY      CLEAR     44  32  62 N12       30.41R
RUSSELL        CLEAR     46  35  65 N14       30.36R
$$

KSZ061>065-074>080-084>089-310600-
SOUTHWEST KANSAS

CITY           SKY/WX    TMP DP  RH WIND       PRES   REMARKS
DODGE CITY     CLEAR     45  31  58 NE12      30.36R
ELKHART          N/A     49  28  44 N3          N/A
GARDEN CITY    CLEAR     45  30  55 NE13      30.37R
GREAT BEND     CLEAR     48  32  53 N17       30.36R
LIBERAL        CLEAR     41  27  56 N8        30.38R
$$

KSZ066>073-081>083-090>101-310600-
SOUTHEAST KANSAS

CITY           SKY/WX    TMP DP  RH WIND       PRES   REMARKS
CHANUTE        CLEAR     53  41  63 N10       30.21R
COFFEYVILLE    CLEAR     53  41  63 N12       30.20R
HUTCHINSON     CLEAR     52  35  52 N13G20    30.31R
MEDICINE LODGE   N/A     53  34  48 NE15G23   30.29R
NEWTON         CLEAR     50  34  53 N14       30.30R
PARSONS        CLEAR     51  42  71 N8        30.22R
WICHITA INTL   CLEAR     54  36  50 N15       30.28R
WICHITA JABRA  CLEAR     51  37  58 N15       30.28R
WINFIELD       CLEAR     55  37  50 N16       30.26R
$$

KSZ007>012-019>026-033>040-048>060-102>105-310600-
NORTHEAST KANSAS

CITY           SKY/WX    TMP DP  RH WIND       PRES   REMARKS
CONCORDIA      CLOUDY    45  38  76 N14       30.37R
EMPORIA        CLEAR     50  38  63 N15G24    30.26R
LAWRENCE       CLEAR     49  39  68 N16       30.24R
MANHATTAN      CLEAR     47  38  71 N8G21     30.32R
OLATHE IND     CLEAR     50  41  71 N17       30.22R
OLATHE EXE     CLEAR     52  40  63 N15G22    30.20R
SALINA         CLEAR     47  36  65 N20G29    30.35R
TOPEKA BILLARD CLEAR     49  40  71 N15G22    30.27R
TOPEKA FORBES  CLEAR     49  39  68 N15G22    30.25R
$$



USA.gov is the U.S. government's official web portal to all federal, state and local government web resources and services.